Location: Chavannes
(47.1090°N, 0.2226°W)
Time: 13:45:23
(UTC+00:00)

Cosmos 1470 - Pass Details

Date: 16 October 2021
Orbit: 519 x 541 km, 82.5° (Epoch: 06 December)

Event Time Altitude Azimuth Distance (km) Brightness Sun altitude
Rises 17:54:52 0° 197° (SSW) 2,689 6.6 -8.1°
Reaches altitude 10° 17:57:02 10° 201° (SSW) 1,803 5.8 -8.5°
Maximum altitude 18:00:57 60° 281° (W) 626 3.5 -9.2°
Drops below altitude 10° 18:04:55 10° 2° (N) 1,816 5.4 -9.8°
Sets 18:07:06 0° 7° (N) 2,712 6.3 -10.2°
